Location: Contre
(49.7477°N, 2.0963°E)
Time: 10:19:46
(UTC+00:00)

ISS - Pass Details

Date: 03 March 2024
Orbit: 413 x 419 km, 51.6° (Epoch: 13 April)

Event Time Altitude Azimuth Distance (km) Brightness Sun altitude
Exits shadow 05:51:25 - 279° (W) 1,589 -1.5 -7.0°
Reaches altitude 10° 05:51:36 10° 278° (W) 1,522 -1.6 -7.0°
Maximum altitude 05:54:41 32° 213° (SSW) 753 -2.7 -6.5°
Drops below altitude 10° 05:57:46 10° 148° (SSE) 1,512 -0.4 -6.0°
Sets 05:59:58 0° 139° (SE) 2,372 0.8 -5.6°
